This is the latest recevied weather packets stored in our database for station/object WY7ATH-2. If no packets are shown the sender has not sent any weather packets the latest 10 day(s).
| Time | Temp. | Humidity | Pressure | Rain* | Wind** | Luminosity | Snow |
|---|---|---|---|---|---|---|---|
| 1777689471 | 3.33° C | - | - | 5.84 mm | 0 m/s | - | - |
| 1777688874 | 3.33° C | - | - | 5.84 mm | 0 m/s | - | - |
| 1777688273 | 3.89° C | - | - | 5.84 mm | 0 m/s | - | - |
| 1777687676 | 4.44° C | - | - | 5.84 mm | 0 m/s | - | - |
| 1777687080 | 5° C | - | - | 9.91 mm | 0 m/s | - | - |
| 1777685886 | 7.22° C | - | - | 9.91 mm | 0 m/s | - | - |
| 1777685289 | 7.78° C | - | - | 9.91 mm | 0 m/s | - | - |
| 1777684688 | 8.89° C | - | - | 9.91 mm | 0 m/s | - | - |
| 1777683494 | 9.44° C | - | - | 9.91 mm | 0 m/s | - | - |
| 1777681704 | 8.89° C | - | - | 9.91 mm | 0 m/s | - | - |
| 1777681103 | 9.44° C | - | - | 9.91 mm | 0 m/s | - | - |
| 1777679909 | 10.56° C | - | - | 12.45 mm | 0 m/s | - | - |
| 1777676324 | 11.11° C | - | - | 14.73 mm | 0 m/s | - | - |
| 1777674534 | 12.78° C | - | - | 14.73 mm | 0 m/s | - | - |
| 1777673336 | 14.44° C | - | - | 14.73 mm | 0 m/s | - | - |
| 1777672739 | 13.89° C | - | - | 17.02 mm | 0 m/s | - | - |
| 1777672142 | 13.33° C | - | - | 17.02 mm | 0 m/s | - | - |
| 1777671545 | 15.56° C | - | - | 17.02 mm | 0 m/s | - | - |
| 1777669751 | 11.11° C | - | - | 17.02 mm | 0 m/s | - | - |
| 1777669154 | 11.11° C | - | - | 18.29 mm | 0 m/s | - | - |
| 1777668557 | 15° C | - | - | 18.29 mm | 0 m/s | - | - |
| 1777666763 | 13.33° C | - | - | 18.29 mm | 0 m/s | - | - |
| 1777666165 | 10° C | - | - | 18.29 mm | 0 m/s | - | - |
| 1777665568 | 13.33° C | - | - | 18.29 mm | 0 m/s | - | - |
| 1777664971 | 10° C | - | - | 20.07 mm | 0 m/s | - | - |
* Rain latest hour (hover to see other rain measurements)
** Current wind speed in m/s (hover to see current wind gust speed)